Regional Weather Roundup
Issued by NWS

Home | Current Version | Previous Version | Graphics & Text | Print | Product List | Glossary On
Versions: 1 2 3 4 5 6 7 8 9 10 11 12 13 14 15 16 17 18 19 20 21 22 23 24 25 26 27 28 29 30 31 32 33 34 35 36 37 38 39 40 41 42 43 44 45 46 47 48 49 50
000
ASUS43 KIND 300009
RWRIN

WEATHER ROUNDUP FOR INDIANA
NATIONAL WEATHER SERVICE INDIANAPOLIS IN
800 PM EDT FRI AUG 29 2014

NOTE: "FAIR" INDICATES FEW OR NO CLOUDS BELOW 12,000 FEET WITH NO
SIGNIFICANT WEATHER AND/OR OBSTRUCTIONS TO VISIBILITY.

* - STATION DOES NOT REPORT WEATHER SUCH AS PRECIPITATION OR FOG.

+ - STATION NOT QUALITY CONTROLLED BY THE NATIONAL WEATHER SERVICE.
    USE DATA WITH CAUTION...ESPECIALLY DEWPOINT AND RELATIVE
    HUMIDITY OBSERVATIONS.

INZ001>003-010>013-019-020-300100-
NORTHWEST INDIANA

CITY           SKY/WX    TMP DP  RH WIND       PRES   REMARKS
GARY /AIRPORT/ MOCLDY    79  66  65 SE13      29.91S
KNOX *+        MOCLDY    78  71  77 SE8       29.93S
LA PORTE +     CLOUDY    75  73  93 CALM      29.95F
6HR MIN TEMP:  72; 6HR MAX TEMP:  79; 6HR PCP:  0.17;

MICHIGAN CITY+ LGT RAIN  73  72  94 CALM      29.93F
MONTICELLO +   MOCLDY    78  73  83 CALM      29.93F
RENSSELAER +   MOCLDY    79  73  83 E5        29.93S
VALPARAISO     MOCLDY    73  73 100 E5        29.93F
6HR MIN TEMP:  73; 6HR MAX TEMP:  82; 6HR PCP:  0.48;


$$

LMZ046-743>745-300100-
SOUTHERN LAKE MICHIGAN

STATION/POSITION TIME  TEMP WIND        PRES
                       AIR  DIR/SP/G
                 (UTC) (F)  (DEG/KT/KT) (MB)
MICHIGAN CITY    0000   76  110/  7/  9   N/A

$$

INZ004-005-014>016-021>024-300100-
NORTH CENTRAL INDIANA

CITY           SKY/WX    TMP DP  RH WIND       PRES   REMARKS
ELKHART        MOCLDY    75  73  94 SE5       29.96S
GOSHEN         MOCLDY    79  70  74 SE10      29.96S
6HR MIN TEMP:  79; 6HR MAX TEMP:  84;

LOGANSPORT +   CLEAR     77  68  73 SE6       29.95F
PERU/GRISSOM   CLEAR     78  76  92 SE6       29.95S
6HR MIN TEMP:  78; 6HR MAX TEMP:  84;

ROCHESTER +    MOCLDY    79  72  78 SE6       29.95F
SOUTH BEND     CLOUDY    77  72  84 SE5       29.95S
6HR MIN TEMP:  75; 6HR MAX TEMP:  81; 6HR PCP:  0.08;

WARSAW +       MOCLDY    77  70  78 SE6       29.96S

$$

INZ006>009-017-018-025>027-300100-
NORTHEAST INDIANA

CITY           SKY/WX    TMP DP  RH WIND       PRES   REMARKS
ANGOLA *+      CLEAR     77  70  78 S7        30.00S
AUBURN +       PTCLDY    77  64  65 SE3       30.00S
FORT WAYNE     PTCLDY    77  68  73 SE8       29.99F
6HR MIN TEMP:  77; 6HR MAX TEMP:  82;

HUNTINGTON +   CLEAR     77  70  78 SE5       29.98S
6HR MIN TEMP:  77; 6HR MAX TEMP:  83;


$$

INZ028-029-035-036-043>045-051>053-300100-
WEST CENTRAL INDIANA

CITY           SKY/WX    TMP DP  RH WIND       PRES   REMARKS
GREENCASTLE +  CLOUDY    77  72  83 CALM      29.96R
LAFAYETTE      CLOUDY    77  69  76 SW12G17   29.94S
6HR MIN TEMP:  77; 6HR MAX TEMP:  86; 6HR PCP: TRACE;

TERRE HAUTE    MOCLDY    77  71  82 S6        29.93S
6HR MIN TEMP:  73; 6HR MAX TEMP:  89; 6HR PCP:  0.09;


$$

INZ030>032-037>040-046>048-054>057-064-065-300100-
CENTRAL INDIANA

CITY           SKY/WX    TMP DP  RH WIND       PRES   REMARKS
CP ATTERBURY + PTCLDY    81  70  69 SE5       29.97S
FRANKFORT +    MOCLDY    78  78 100 CALM      29.97S
INDIANAPOLIS   MOCLDY    82  71  69 S8        29.95R
6HR MIN TEMP:  79; 6HR MAX TEMP:  87;

-EAGLE CREEK   PTCLDY    83  70  64 S6        29.95R
6HR MIN TEMP:  78; 6HR MAX TEMP:  87;

KOKOMO *+      CLEAR     79  72  78 SE9       29.96F
MARION +       CLEAR     77  69  74 SE6       29.98S
MT COMFORT *+  PTCLDY    79  75  89 SE5       29.98S
SHELBYVILLE    PTCLDY    84  71  65 S9        29.97R
6HR MIN TEMP:  84; 6HR MAX TEMP:  88;

ZIONSVILLE +   PTCLDY    79  70  73 SE5       29.97R
6HR MIN TEMP:  75; 6HR MAX TEMP:  85;


$$

INZ033-034-041-042-049-050-058-059-300100-
EAST CENTRAL INDIANA

CITY           SKY/WX    TMP DP  RH WIND       PRES   REMARKS
MUNCIE         CLEAR     78  68  71 SE7       29.99S
6HR MIN TEMP:  78; 6HR MAX TEMP:  84;


$$

INZ060-061-067>069-081>083-085>088-300100-
SOUTHWEST INDIANA

CITY           SKY/WX    TMP DP  RH WIND       PRES   REMARKS
EVANSVILLE     CLEAR     86  65  49 S7        29.94R
6HR MIN TEMP:  84; 6HR MAX TEMP:  91;

WASHINGTON +   PTCLDY    82  71  70 S5        29.94R
6HR MIN TEMP:  82; 6HR MAX TEMP:  89;


$$

INZ062-063-066-070>080-084-089>092-300100-
SOUTH CENTRAL AND SOUTHEAST INDIANA

CITY           SKY/WX    TMP DP  RH WIND       PRES   REMARKS
BLOOMINGTON    PTCLDY    82  67  60 S7        29.96S
6HR MIN TEMP:  82; 6HR MAX TEMP:  89;

SEYMOUR +      PTCLDY    81  61  50 S5        29.97

$$



USA.gov is the U.S. government's official web portal to all federal, state and local government web resources and services.